| time (UTC) | temp F | wind direction | speed MPH | gust MPH | rain 1hr in | rain 24hr in | rain mn in | humidity % | barometer mb |
| 20260506165339 | 49 | 0 | 0.0 | 2.0 | 0.00 | 0.00 | 0.00 | 53 | 1004.8 |
| 20260506164138 | 49 | 0 | 0.0 | 5.0 | 0.00 | 0.00 | 0.00 | 52 | 1004.9 |
| 20260506163639 | 49 | 0 | 0.0 | 9.0 | 0.00 | 0.01 | 0.00 | 53 | 1004.9 |
| 20260506163138 | 49 | 0 | 0.0 | 9.0 | 0.00 | 0.01 | 0.00 | 52 | 1004.9 |
| 20260506162638 | 49 | 0 | 0.0 | 3.0 | 0.00 | 0.02 | 0.00 | 55 | 1004.8 |
| 20260506162139 | 49 | 0 | 0.0 | 7.0 | 0.00 | 0.02 | 0.00 | 54 | 1004.8 |
| 20260506161640 | 49 | 0 | 0.0 | 7.0 | 0.00 | 0.03 | 0.00 | 53 | 1004.7 |
| 20260506161138 | 49 | 0 | 0.0 | 7.0 | 0.00 | 0.04 | 0.00 | 54 | 1004.7 |
| 20260506160638 | 49 | 0 | 0.0 | 7.0 | 0.00 | 0.04 | 0.00 | 53 | 1004.9 |
| 20260506160138 | 49 | 0 | 0.0 | 1.0 | 0.00 | 0.05 | 0.00 | 54 | 1004.8 |
| 20260506155338 | 49 | 0 | 0.0 | 5.0 | 0.00 | 0.05 | 0.00 | 56 | 1004.8 |
| 20260506154838 | 49 | 0 | 0.0 | 5.0 | 0.00 | 0.05 | 0.00 | 55 | 1004.8 |
| 20260506154338 | 49 | 0 | 0.0 | 4.0 | 0.00 | 0.05 | 0.00 | 54 | 1004.6 |
| 20260506153838 | 49 | 0 | 0.0 | 2.0 | 0.00 | 0.05 | 0.00 | 54 | 1004.6 |
| 20260506153338 | 50 | 0 | 0.0 | 3.0 | 0.00 | 0.05 | 0.00 | 52 | 1004.6 |
| 20260506152838 | 50 | 0 | 0.0 | 4.0 | 0.00 | 0.05 | 0.00 | 53 | 1004.5 |
| 20260506152337 | 50 | 0 | 0.0 | 4.0 | 0.00 | 0.05 | 0.00 | 53 | 1004.4 |
| 20260506151839 | 50 | 0 | 0.0 | 3.0 | 0.00 | 0.05 | 0.00 | 53 | 1004.4 |
| 20260506151338 | 50 | 0 | 0.0 | 3.0 | 0.00 | 0.05 | 0.00 | 53 | 1004.4 |
| 20260506150838 | 50 | 0 | 0.0 | 5.0 | 0.00 | 0.05 | 0.00 | 55 | 1004.3 |
| 20260506150338 | 49 | 0 | 0.0 | 5.0 | 0.00 | 0.05 | 0.00 | 54 | 1004.4 |
| 20260506145838 | 50 | 0 | 0.0 | 1.0 | 0.00 | 0.05 | 0.00 | 53 | 1004.3 |
| 20260506145338 | 50 | 0 | 0.0 | 0.0 | 0.00 | 0.05 | 0.00 | 57 | 1004.4 |
| 20260506144837 | 50 | 0 | 0.0 | 1.0 | 0.00 | 0.05 | 0.00 | 56 | 1004.3 |
| 20260506144338 | 50 | 0 | 0.0 | 1.0 | 0.00 | 0.05 | 0.00 | 57 | 1004.2 |
| 20260506143838 | 50 | 0 | 0.0 | 2.0 | 0.00 | 0.05 | 0.00 | 56 | 1004.3 |
| 20260506143338 | 50 | 0 | 0.0 | 2.0 | 0.00 | 0.05 | 0.00 | 56 | 1004.3 |
| 20260506142838 | 50 | 0 | 0.0 | 2.0 | 0.00 | 0.05 | 0.00 | 54 | 1004.0 |
| 20260506142337 | 50 | 0 | 0.0 | 3.0 | 0.00 | 0.05 | 0.00 | 57 | 1003.9 |
| 20260506141837 | 50 | 0 | 0.0 | 3.0 | 0.00 | 0.05 | 0.00 | 56 | 1003.8 |
| 20260506141338 | 49 | 0 | 0.0 | 3.0 | 0.00 | 0.05 | 0.00 | 57 | 1003.8 |
| 20260506140813 | 49 | 0 | 0.0 | 3.0 | 0.00 | 0.05 | 0.00 | 55 | 1003.8 |
| 20260506140313 | 49 | 0 | 0.0 | 1.0 | 0.00 | 0.05 | 0.00 | 55 | 1003.8 |
| 20260506135813 | 49 | 0 | 0.0 | 2.0 | 0.00 | 0.05 | 0.00 | 55 | 1003.7 |
| 20260506135316 | 49 | 0 | 0.0 | 2.0 | 0.00 | 0.05 | 0.00 | 53 | 1003.6 |
| 20260506134813 | 49 | 0 | 0.0 | 2.0 | 0.00 | 0.05 | 0.00 | 54 | 1003.6 |
| 20260506134313 | 49 | 0 | 0.0 | 3.0 | 0.00 | 0.05 | 0.00 | 53 | 1003.6 |
| 20260506133813 | 49 | 0 | 0.0 | 3.0 | 0.00 | 0.05 | 0.00 | 55 | 1003.5 |
| 20260506133313 | 48 | 0 | 0.0 | 1.0 | 0.00 | 0.05 | 0.00 | 55 | 1003.6 |
| 20260506132813 | 48 | 0 | 0.0 | 1.0 | 0.00 | 0.05 | 0.00 | 57 | 1003.6 |
| 20260506132313 | 48 | 0 | 0.0 | 1.0 | 0.00 | 0.05 | 0.00 | 58 | 1003.6 |
| 20260506131813 | 48 | 0 | 0.0 | 3.0 | 0.00 | 0.05 | 0.00 | 57 | 1003.4 |
| 20260506131313 | 48 | 0 | 0.0 | 3.0 | 0.00 | 0.05 | 0.00 | 56 | 1003.4 |
| 20260506130330 | 47 | 0 | 0.0 | 1.0 | 0.00 | 0.05 | 0.00 | 60 | 1003.2 |
| 20260506125830 | 47 | 0 | 0.0 | 1.0 | 0.00 | 0.05 | 0.00 | 60 | 1003.2 |
| 20260506125330 | 47 | 0 | 0.0 | 0.0 | 0.00 | 0.05 | 0.00 | 61 | 1003.1 |
| 20260506124830 | 46 | 0 | 0.0 | 3.0 | 0.00 | 0.05 | 0.00 | 61 | 1003.1 |
| 20260506124330 | 46 | 0 | 0.0 | 3.0 | 0.00 | 0.05 | 0.00 | 62 | 1003.1 |
| 20260506123830 | 45 | 0 | 0.0 | 1.0 | 0.00 | 0.05 | 0.00 | 62 | 1003.1 |
| 20260506123330 | 45 | 0 | 0.0 | 0.0 | 0.00 | 0.05 | 0.00 | 62 | 1002.9 |
| 20260506122807 | 44 | 0 | 0.0 | 0.0 | 0.00 | 0.05 | 0.00 | 63 | 1002.9 |
| 20260506122204 | 44 | 0 | 0.0 | 0.0 | 0.00 | 0.05 | 0.00 | 65 | 1002.8 |
| 20260506121101 | 43 | 0 | 0.0 | 1.0 | 0.00 | 0.05 | 0.00 | 66 | 1002.6 |
| 20260506120118 | 43 | 0 | 0.0 | 0.0 | 0.00 | 0.05 | 0.00 | 67 | 1002.4 |
| 20260506115618 | 43 | 0 | 0.0 | 0.0 | 0.00 | 0.05 | 0.00 | 67 | 1002.5 |
| 20260506115118 | 43 | 0 | 0.0 | 1.0 | 0.00 | 0.05 | 0.00 | 66 | 1002.5 |
| 20260506114618 | 43 | 0 | 0.0 | 1.0 | 0.00 | 0.05 | 0.00 | 67 | 1002.5 |
| 20260506114118 | 43 | 0 | 0.0 | 1.0 | 0.00 | 0.05 | 0.00 | 66 | 1002.5 |
| 20260506113618 | 43 | 0 | 0.0 | 0.0 | 0.00 | 0.05 | 0.00 | 67 | 1002.6 |
| 20260506113118 | 43 | 0 | 0.0 | 0.0 | 0.00 | 0.05 | 0.00 | 67 | 1002.3 |
| 20260506112618 | 42 | 0 | 0.0 | 0.0 | 0.00 | 0.05 | 0.00 | 66 | 1002.1 |
| 20260506112118 | 42 | 0 | 0.0 | 0.0 | 0.00 | 0.05 | 0.00 | 67 | 1002.1 |
| 20260506111618 | 42 | 0 | 0.0 | 0.0 | 0.00 | 0.05 | 0.00 | 66 | 1002.1 |
| 20260506110320 | 43 | 0 | 0.0 | 0.0 | 0.00 | 0.05 | 0.00 | 66 | 1002.0 |
| 20260506105318 | 43 | 0 | 0.0 | 0.0 | 0.00 | 0.05 | 0.00 | 65 | 1001.8 |
| 20260506104815 | 43 | 0 | 0.0 | 0.0 | 0.00 | 0.05 | 0.00 | 65 | 1001.7 |
| 20260506104319 | 43 | 0 | 0.0 | 0.0 | 0.00 | 0.05 | 0.00 | 65 | 1001.7 |
| 20260506103815 | 43 | 0 | 0.0 | 0.0 | 0.00 | 0.05 | 0.00 | 65 | 1001.7 |
| 20260506103316 | 44 | 0 | 0.0 | 0.0 | 0.00 | 0.05 | 0.00 | 65 | 1001.5 |
| 20260506102815 | 44 | 0 | 0.0 | 0.0 | 0.00 | 0.05 | 0.00 | 64 | 1001.5 |
| 20260506102318 | 44 | 0 | 0.0 | 1.0 | 0.00 | 0.05 | 0.00 | 65 | 1001.3 |
| 20260506101817 | 44 | 0 | 0.0 | 1.0 | 0.00 | 0.05 | 0.00 | 65 | 1001.4 |
| 20260506101317 | 44 | 0 | 0.0 | 0.0 | 0.00 | 0.05 | 0.00 | 65 | 1001.4 |
| 20260506100815 | 44 | 0 | 0.0 | 0.0 | 0.00 | 0.05 | 0.00 | 65 | 1001.5 |
| 20260506100318 | 44 | 0 | 0.0 | 0.0 | 0.00 | 0.05 | 0.00 | 64 | 1001.4 |
| 20260506095815 | 44 | 0 | 0.0 | 1.0 | 0.00 | 0.05 | 0.00 | 64 | 1001.5 |
| 20260506095316 | 45 | 0 | 0.0 | 1.0 | 0.00 | 0.05 | 0.00 | 64 | 1001.4 |
| 20260506093441 | 45 | 0 | 0.0 | 0.0 | 0.00 | 0.05 | 0.00 | 63 | 1001.1 |
| 20260506092941 | 45 | 0 | 0.0 | 0.0 | 0.00 | 0.05 | 0.00 | 64 | 1000.9 |
| 20260506092441 | 45 | 0 | 0.0 | 0.0 | 0.00 | 0.05 | 0.00 | 64 | 1000.9 |
| 20260506091941 | 45 | 0 | 0.0 | 0.0 | 0.00 | 0.05 | 0.00 | 64 | 1000.8 |
| 20260506091442 | 45 | 0 | 0.0 | 0.0 | 0.00 | 0.05 | 0.00 | 65 | 1000.8 |
| 20260506090941 | 45 | 0 | 0.0 | 0.0 | 0.00 | 0.05 | 0.00 | 64 | 1000.8 |
| 20260506090441 | 45 | 0 | 0.0 | 3.0 | 0.00 | 0.05 | 0.00 | 64 | 1000.9 |
| 20260506085941 | 45 | 0 | 0.0 | 3.0 | 0.00 | 0.05 | 0.00 | 64 | 1000.9 |
| 20260506085441 | 45 | 0 | 0.0 | 1.0 | 0.00 | 0.05 | 0.00 | 64 | 1001.0 |
| 20260506084941 | 45 | 0 | 0.0 | 0.0 | 0.00 | 0.05 | 0.00 | 64 | 1000.8 |
| 20260506084441 | 45 | 0 | 0.0 | 0.0 | 0.00 | 0.05 | 0.00 | 64 | 1000.6 |
| 20260506083941 | 45 | 0 | 0.0 | 0.0 | 0.00 | 0.05 | 0.00 | 64 | 1000.7 |
| 20260506083441 | 45 | 0 | 0.0 | 0.0 | 0.00 | 0.05 | 0.00 | 63 | 1000.6 |
| 20260506082941 | 45 | 0 | 0.0 | 0.0 | 0.00 | 0.05 | 0.00 | 64 | 1000.7 |
| 20260506082441 | 45 | 0 | 0.0 | 0.0 | 0.00 | 0.05 | 0.00 | 63 | 1000.8 |
| 20260506081941 | 45 | 0 | 0.0 | 0.0 | 0.00 | 0.05 | 0.00 | 64 | 1000.8 |
| 20260506081441 | 45 | 0 | 0.0 | 0.0 | 0.00 | 0.05 | 0.00 | 65 | 1000.8 |
| 20260506080941 | 45 | 0 | 0.0 | 0.0 | 0.00 | 0.05 | 0.00 | 64 | 1000.6 |
| 20260506080442 | 46 | 0 | 0.0 | 0.0 | 0.00 | 0.05 | 0.00 | 64 | 1000.7 |
| 20260506073441 | 46 | 0 | 0.0 | 0.0 | 0.00 | 0.05 | 0.00 | 63 | 1000.8 |
| 20260506072941 | 46 | 0 | 0.0 | 0.0 | 0.00 | 0.05 | 0.00 | 63 | 1000.8 |
| 20260506072441 | 46 | 0 | 0.0 | 0.0 | 0.00 | 0.05 | 0.00 | 63 | 1000.8 |
| 20260506071941 | 46 | 0 | 0.0 | 0.0 | 0.00 | 0.05 | 0.00 | 64 | 1000.8 |
| 20260506071441 | 46 | 0 | 0.0 | 0.0 | 0.00 | 0.05 | 0.00 | 63 | 1000.7 |
| 20260506070941 | 46 | 0 | 0.0 | 1.0 | 0.00 | 0.05 | 0.00 | 63 | 1000.6 |
| 20260506070441 | 46 | 0 | 0.0 | 1.0 | 0.00 | 0.05 | 0.00 | 64 | 1000.6 |
| 20260506062441 | 47 | 0 | 0.0 | 1.0 | 0.00 | 0.05 | 0.00 | 61 | 1000.9 |
| 20260506061941 | 47 | 0 | 0.0 | 1.0 | 0.00 | 0.05 | 0.00 | 61 | 1000.9 |
| 20260506061441 | 47 | 0 | 0.0 | 1.0 | 0.00 | 0.05 | 0.00 | 60 | 1000.9 |
| 20260506060941 | 47 | 0 | 0.0 | 2.0 | 0.00 | 0.05 | 0.00 | 62 | 1000.9 |
| 20260506060441 | 47 | 0 | 0.0 | 2.0 | 0.00 | 0.05 | 0.00 | 62 | 1001.2 |
| 20260506051032 | 47 | 0 | 0.0 | 0.0 | 0.00 | 0.06 | 0.00 | 62 | 1000.7 |
| 20260506050533 | 47 | 0 | 0.0 | 0.0 | 0.00 | 0.06 | 0.00 | 63 | 1000.7 |
| 20260506045030 | 47 | 0 | 0.0 | 1.0 | 0.00 | 0.06 | 0.00 | 60 | 1001.0 |
| 20260506044530 | 47 | 0 | 0.0 | 0.0 | 0.00 | 0.06 | 0.00 | 60 | 1000.9 |
| 20260506044030 | 47 | 0 | 0.0 | 0.0 | 0.00 | 0.06 | 0.00 | 61 | 1000.9 |
| 20260506043530 | 47 | 0 | 0.0 | 0.0 | 0.00 | 0.06 | 0.00 | 60 | 1000.9 |
| 20260506043030 | 47 | 0 | 0.0 | 0.0 | 0.00 | 0.06 | 0.00 | 61 | 1000.8 |
| 20260506042530 | 47 | 0 | 0.0 | 0.0 | 0.00 | 0.07 | 0.00 | 60 | 1000.8 |
| 20260506042031 | 48 | 0 | 0.0 | 0.0 | 0.00 | 0.08 | 0.00 | 60 | 1000.7 |
| 20260506041530 | 48 | 0 | 0.0 | 0.0 | 0.00 | 0.09 | 0.00 | 60 | 1000.7 |
| 20260506035347 | 48 | 0 | 0.0 | 0.0 | 0.00 | 0.09 | 0.00 | 60 | 1000.7 |
| 20260506034347 | 48 | 0 | 0.0 | 0.0 | 0.00 | 0.09 | 0.09 | 58 | 1000.6 |
| 20260506033847 | 48 | 0 | 0.0 | 0.0 | 0.00 | 0.09 | 0.09 | 59 | 1000.5 |
| 20260506033347 | 48 | 0 | 0.0 | 0.0 | 0.00 | 0.09 | 0.09 | 59 | 1000.5 |
| 20260506032847 | 48 | 0 | 0.0 | 0.0 | 0.00 | 0.09 | 0.09 | 58 | 1000.6 |
| 20260506032347 | 48 | 0 | 0.0 | 0.0 | 0.00 | 0.09 | 0.09 | 58 | 1000.5 |
| 20260506031347 | 48 | 0 | 0.0 | 0.0 | 0.00 | 0.09 | 0.09 | 59 | 1000.7 |
| 20260506030847 | 48 | 0 | 0.0 | 0.0 | 0.00 | 0.09 | 0.09 | 58 | 1000.7 |
| 20260506030348 | 48 | 0 | 0.0 | 0.0 | 0.00 | 0.09 | 0.09 | 58 | 1000.7 |
| 20260506025847 | 48 | 0 | 0.0 | 0.0 | 0.00 | 0.09 | 0.09 | 58 | 1000.8 |
| 20260506025347 | 49 | 0 | 0.0 | 0.0 | 0.00 | 0.09 | 0.09 | 58 | 1000.7 |
| 20260506024847 | 49 | 0 | 0.0 | 0.0 | 0.00 | 0.09 | 0.09 | 58 | 1000.6 |
| 20260506024347 | 49 | 0 | 0.0 | 0.0 | 0.00 | 0.09 | 0.09 | 59 | 1000.7 |
| 20260506023847 | 49 | 0 | 0.0 | 0.0 | 0.00 | 0.09 | 0.09 | 58 | 1000.7 |
| 20260506023347 | 49 | 0 | 0.0 | 0.0 | 0.00 | 0.09 | 0.09 | 57 | 1000.7 |
| 20260506022847 | 49 | 0 | 0.0 | 0.0 | 0.00 | 0.09 | 0.09 | 56 | 1000.7 |
| 20260506022347 | 49 | 0 | 0.0 | 0.0 | 0.00 | 0.09 | 0.09 | 57 | 1000.7 |
| 20260506021347 | 49 | 0 | 0.0 | 0.0 | 0.00 | 0.09 | 0.09 | 56 | 1000.6 |
| 20260506020847 | 49 | 0 | 0.0 | 0.0 | 0.00 | 0.09 | 0.09 | 56 | 1000.6 |
| 20260506020347 | 49 | 0 | 0.0 | 0.0 | 0.00 | 0.09 | 0.09 | 56 | 1000.5 |
| 20260506015847 | 49 | 0 | 0.0 | 0.0 | 0.00 | 0.09 | 0.09 | 57 | 1000.6 |
| 20260506015347 | 49 | 0 | 0.0 | 0.0 | 0.00 | 0.09 | 0.09 | 57 | 1000.4 |
| 20260506014847 | 49 | 0 | 0.0 | 0.0 | 0.00 | 0.09 | 0.09 | 56 | 1000.5 |
| 20260506014040 | 49 | 0 | 0.0 | 0.0 | 0.00 | 0.09 | 0.09 | 57 | 1000.3 |
| 20260506012618 | 49 | 0 | 0.0 | 0.0 | 0.00 | 0.09 | 0.09 | 56 | 1000.2 |
| 20260506012118 | 49 | 0 | 0.0 | 0.0 | 0.00 | 0.09 | 0.09 | 57 | 1000.2 |
| 20260506011618 | 50 | 0 | 0.0 | 0.0 | 0.00 | 0.09 | 0.09 | 54 | 1000.2 |
| 20260506011118 | 50 | 0 | 0.0 | 0.0 | 0.00 | 0.09 | 0.09 | 54 | 1000.0 |
| 20260506010618 | 50 | 0 | 0.0 | 1.0 | 0.00 | 0.09 | 0.09 | 54 | 999.9 |
| 20260506010118 | 50 | 0 | 0.0 | 1.0 | 0.00 | 0.09 | 0.09 | 53 | 999.9 |
| 20260506005618 | 50 | 0 | 0.0 | 2.0 | 0.00 | 0.09 | 0.09 | 53 | 1000.1 |
| 20260506005117 | 50 | 0 | 0.0 | 2.0 | 0.00 | 0.09 | 0.09 | 52 | 1000.1 |
| 20260506004118 | 50 | 0 | 0.0 | 1.0 | 0.00 | 0.09 | 0.09 | 53 | 1000.2 |
| 20260506003618 | 50 | 0 | 0.0 | 1.0 | 0.00 | 0.09 | 0.09 | 53 | 1000.2 |
| 20260506003118 | 50 | 0 | 0.0 | 0.0 | 0.00 | 0.09 | 0.09 | 52 | 1000.1 |
| 20260506002618 | 50 | 0 | 0.0 | 1.0 | 0.00 | 0.09 | 0.09 | 50 | 1000.2 |
| 20260506002118 | 51 | 0 | 0.0 | 7.0 | 0.00 | 0.09 | 0.09 | 51 | 1000.2 |
| 20260506001617 | 51 | 0 | 0.0 | 7.0 | 0.00 | 0.09 | 0.09 | 50 | 1000.3 |
| 20260506001118 | 51 | 0 | 0.0 | 0.0 | 0.00 | 0.09 | 0.09 | 50 | 1000.2 |
| 20260506000617 | 51 | 0 | 0.0 | 1.0 | 0.00 | 0.09 | 0.09 | 51 | 1000.2 |
| 20260506000118 | 51 | 0 | 0.0 | 1.0 | 0.00 | 0.09 | 0.09 | 51 | 1000.1 |
| 20260505235617 | 51 | 0 | 0.0 | 0.0 | 0.00 | 0.09 | 0.09 | 50 | 1000.0 |
| 20260505234538 | 51 | 0 | 0.0 | 0.0 | 0.00 | 0.09 | 0.09 | 49 | 999.9 |
| 20260505233340 | 52 | 0 | 0.0 | 0.0 | 0.00 | 0.13 | 0.09 | 50 | 999.7 |
| 20260505232840 | 52 | 0 | 0.0 | 2.0 | 0.00 | 0.13 | 0.09 | 50 | 999.6 |
| 20260505232342 | 52 | 0 | 0.0 | 2.0 | 0.00 | 0.13 | 0.09 | 50 | 999.5 |
| 20260505231841 | 52 | 0 | 0.0 | 1.0 | 0.00 | 0.13 | 0.09 | 51 | 999.6 |
| 20260505231344 | 52 | 0 | 0.0 | 1.0 | 0.00 | 0.13 | 0.09 | 49 | 999.6 |
| 20260505230840 | 52 | 0 | 0.0 | 0.0 | 0.00 | 0.13 | 0.09 | 53 | 999.5 |
| 20260505230340 | 52 | 0 | 0.0 | 0.0 | 0.00 | 0.13 | 0.09 | 55 | 999.5 |
| 20260505225841 | 52 | 0 | 0.0 | 0.0 | 0.00 | 0.13 | 0.09 | 53 | 999.4 |
| 20260505225340 | 52 | 0 | 0.0 | 0.0 | 0.00 | 0.13 | 0.09 | 54 | 999.5 |
| 20260505224843 | 52 | 0 | 0.0 | 0.0 | 0.00 | 0.13 | 0.09 | 55 | 999.5 |
| 20260505224340 | 52 | 0 | 0.0 | 0.0 | 0.00 | 0.13 | 0.09 | 54 | 999.6 |
| 20260505223841 | 52 | 0 | 0.0 | 0.0 | 0.00 | 0.13 | 0.09 | 54 | 999.7 |
| 20260505222841 | 53 | 0 | 0.0 | 0.0 | 0.00 | 0.13 | 0.09 | 52 | 999.6 |
| 20260505222340 | 53 | 0 | 0.0 | 0.0 | 0.00 | 0.13 | 0.09 | 52 | 999.7 |
| 20260505221841 | 53 | 0 | 0.0 | 0.0 | 0.00 | 0.13 | 0.09 | 54 | 999.7 |
| 20260505221246 | 53 | 0 | 0.0 | 0.0 | 0.00 | 0.13 | 0.09 | 53 | 999.7 |
| 20260505220746 | 53 | 0 | 0.0 | 0.0 | 0.00 | 0.13 | 0.09 | 52 | 999.6 |
| 20260505220246 | 53 | 0 | 0.0 | 1.0 | 0.00 | 0.13 | 0.09 | 52 | 999.7 |
| 20260505215746 | 53 | 0 | 0.0 | 3.0 | 0.00 | 0.13 | 0.09 | 52 | 999.6 |
| 20260505215246 | 53 | 0 | 0.0 | 3.0 | 0.00 | 0.13 | 0.09 | 52 | 999.6 |
| 20260505214748 | 53 | 0 | 0.0 | 3.0 | 0.00 | 0.13 | 0.09 | 53 | 999.6 |
| 20260505214246 | 53 | 0 | 0.0 | 3.0 | 0.00 | 0.13 | 0.09 | 52 | 999.6 |
| 20260505213746 | 53 | 0 | 0.0 | 3.0 | 0.00 | 0.13 | 0.09 | 52 | 999.7 |
| 20260505213246 | 53 | 0 | 0.0 | 2.0 | 0.00 | 0.13 | 0.09 | 53 | 999.6 |
| 20260505212746 | 53 | 0 | 0.0 | 2.0 | 0.00 | 0.13 | 0.09 | 54 | 999.7 |
| 20260505212246 | 53 | 0 | 0.0 | 2.0 | 0.00 | 0.13 | 0.09 | 54 | 999.6 |
| 20260505211339 | 53 | 0 | 0.0 | 4.0 | 0.00 | 0.13 | 0.09 | 56 | 999.6 |
| 20260505210839 | 53 | 0 | 0.0 | 4.0 | 0.00 | 0.13 | 0.09 | 56 | 999.6 |
| 20260505210339 | 53 | 0 | 0.0 | 2.0 | 0.00 | 0.13 | 0.09 | 56 | 999.6 |
| 20260505205839 | 53 | 0 | 0.0 | 2.0 | 0.00 | 0.13 | 0.09 | 56 | 999.6 |
| 20260505205339 | 53 | 0 | 0.0 | 0.0 | 0.00 | 0.13 | 0.09 | 60 | 999.6 |
| 20260505204840 | 53 | 0 | 0.0 | 0.0 | 0.00 | 0.13 | 0.09 | 60 | 999.7 |
| 20260505204339 | 53 | 0 | 0.0 | 0.0 | 0.00 | 0.13 | 0.09 | 62 | 999.7 |
| 20260505203839 | 53 | 0 | 0.0 | 2.0 | 0.00 | 0.13 | 0.09 | 62 | 999.6 |
| 20260505203339 | 53 | 0 | 0.0 | 2.0 | 0.00 | 0.13 | 0.09 | 63 | 999.7 |
| 20260505202839 | 53 | 0 | 0.0 | 1.0 | 0.00 | 0.13 | 0.09 | 62 | 999.7 |
| 20260505202339 | 53 | 0 | 0.0 | 2.0 | 0.00 | 0.13 | 0.09 | 62 | 999.8 |
| 20260505201839 | 53 | 0 | 0.0 | 2.0 | 0.00 | 0.13 | 0.09 | 63 | 999.8 |
| 20260505201017 | 52 | 0 | 0.0 | 0.0 | 0.00 | 0.13 | 0.09 | 66 | 999.6 |
| 20260505200516 | 52 | 0 | 0.0 | 0.0 | 0.00 | 0.13 | 0.09 | 66 | 999.5 |
| 20260505200016 | 52 | 0 | 0.0 | 1.0 | 0.00 | 0.13 | 0.09 | 66 | 999.6 |
| 20260505195516 | 52 | 0 | 0.0 | 1.0 | 0.00 | 0.13 | 0.09 | 70 | 999.7 |
| 20260505195016 | 52 | 0 | 0.0 | 0.0 | 0.00 | 0.13 | 0.09 | 76 | 999.8 |
| 20260505194516 | 52 | 0 | 0.0 | 0.0 | 0.00 | 0.13 | 0.09 | 76 | 999.8 |
| 20260505194016 | 52 | 0 | 0.0 | 0.0 | 0.00 | 0.13 | 0.09 | 76 | 999.7 |
| 20260505193516 | 52 | 0 | 0.0 | 0.0 | 0.00 | 0.13 | 0.09 | 76 | 999.7 |
| 20260505193016 | 52 | 0 | 0.0 | 0.0 | 0.00 | 0.13 | 0.09 | 76 | 999.8 |
| 20260505192516 | 51 | 0 | 0.0 | 0.0 | 0.00 | 0.13 | 0.09 | 77 | 999.8 |
| 20260505191516 | 51 | 0 | 0.0 | 2.0 | 0.00 | 0.13 | 0.09 | 77 | 999.8 |
| 20260505191017 | 51 | 0 | 0.0 | 2.0 | 0.00 | 0.13 | 0.09 | 78 | 999.8 |
| 20260505190516 | 51 | 0 | 0.0 | 2.0 | 0.00 | 0.13 | 0.09 | 78 | 999.8 |
| 20260505185539 | 51 | 0 | 0.0 | 1.0 | 0.00 | 0.13 | 0.09 | 78 | 999.8 |
| 20260505185039 | 51 | 0 | 0.0 | 4.0 | 0.00 | 0.13 | 0.09 | 79 | 999.9 |
| 20260505184539 | 51 | 0 | 0.0 | 4.0 | 0.00 | 0.13 | 0.09 | 79 | 999.9 |
| 20260505183539 | 51 | 0 | 0.0 | 1.0 | 0.00 | 0.13 | 0.09 | 79 | 999.7 |
| 20260505182539 | 51 | 0 | 0.0 | 1.0 | 0.00 | 0.13 | 0.09 | 79 | 999.7 |
| 20260505182039 | 51 | 0 | 0.0 | 1.0 | 0.00 | 0.13 | 0.09 | 79 | 999.7 |
| 20260505181539 | 52 | 0 | 0.0 | 1.0 | 0.00 | 0.13 | 0.09 | 80 | 999.6 |
| 20260505181040 | 52 | 0 | 0.0 | 2.0 | 0.00 | 0.13 | 0.09 | 80 | 999.5 |
| 20260505180539 | 52 | 0 | 0.0 | 2.0 | 0.00 | 0.13 | 0.09 | 80 | 999.3 |
| 20260505180039 | 52 | 0 | 0.0 | 1.0 | 0.00 | 0.13 | 0.09 | 80 | 999.3 |
| 20260505175541 | 52 | 0 | 0.0 | 1.0 | 0.00 | 0.13 | 0.09 | 80 | 999.2 |
| 20260505174539 | 51 | 0 | 0.0 | 1.0 | 0.00 | 0.13 | 0.09 | 81 | 999.2 |
| 20260505174041 | 51 | 0 | 0.0 | 2.0 | 0.00 | 0.13 | 0.09 | 82 | 999.2 |
| 20260505173539 | 51 | 0 | 0.0 | 2.0 | 0.00 | 0.13 | 0.09 | 84 | 999.2 |
| 20260505173039 | 50 | 0 | 0.0 | 0.0 | 0.00 | 0.13 | 0.09 | 84 | 999.1 |
| 20260505172539 | 50 | 0 | 0.0 | 1.0 | 0.00 | 0.13 | 0.09 | 85 | 999.1 |
| 20260505172039 | 49 | 0 | 0.0 | 1.0 | 0.01 | 0.13 | 0.09 | 84 | 999.1 |
| 20260505171539 | 49 | 0 | 0.0 | 0.0 | 0.01 | 0.13 | 0.09 | 84 | 999.1 |
| 20260505171040 | 49 | 0 | 0.0 | 2.0 | 0.02 | 0.13 | 0.09 | 84 | 998.9 |